Location: Shenandoah County Park
(38.9356°N, 78.4524°W)
Time: 08:22:27
(UTC-05:00)

Transit 2A Rocket - All Passes

Search period start: 04 December 2023 00:00
Search period end: 14 December 2023 00:00
Orbit: 593 x 903 km, 66.7° (Epoch: 03 December)

Date Brightness Start Highest point End Pass type
(mag) Time Alt. Az. Time Alt. Az. Time Alt. Az.
04 Dec - 06:06:38 10° NNW 06:10:47 42° ENE 06:15:09 10° SE visible
04 Dec - 07:49:56 10° WNW 07:52:56 18° WSW 07:56:01 10° SSW daylight
04 Dec - 20:39:24 10° S 20:44:00 42° ESE 20:48:16 10° NE night (unlit)
04 Dec - 22:22:59 10° W 22:26:33 21° NW 22:29:59 10° N night (unlit)
05 Dec - 05:23:28 10° N 05:27:00 23° NE 05:30:38 10° ESE visible
05 Dec - 07:05:28 10° NW 07:09:28 34° WSW 07:13:41 10° S daylight
05 Dec - 19:56:48 10° SSE 20:00:30 22° ESE 20:04:00 10° ENE night (unlit)
05 Dec - 21:38:19 10° SW 21:42:44 37° WNW 21:46:54 10° NNE night (unlit)
06 Dec - 04:40:52 10° NNE 04:43:04 13° NE 04:45:18 10° ENE visible
06 Dec - 06:21:33 10° NNW 06:25:55 70° WSW 06:30:33 10° SSE visible
06 Dec - 19:15:47 10° ESE 19:17:05 11° ESE 19:18:22 10° E night (unlit)
06 Dec - 20:54:14 10° SW 20:59:02 71° WNW 21:03:30 10° NNE night (unlit)
07 Dec - 05:37:56 10° NNW 05:42:17 60° ENE 05:46:52 10° SE visible
07 Dec - 07:22:22 10° W 07:24:16 12° WSW 07:26:13 10° SW daylight
07 Dec - 20:10:40 10° SSW 20:15:25 59° ESE 20:19:51 10° NE night (unlit)
07 Dec - 21:55:20 10° W 21:58:10 16° NW 22:00:55 10° N night (unlit)
08 Dec - 04:54:37 10° N 04:58:33 31° NE 05:02:39 10° ESE visible
08 Dec - 06:37:13 10° NW 06:40:51 25° WSW 06:44:39 10° SSW visible
08 Dec - 19:27:41 10° S 19:31:53 30° ESE 19:35:49 10° NE visible
08 Dec - 21:10:16 10° WSW 21:14:17 27° NW 21:18:06 10° N night (unlit)
09 Dec - 04:11:39 10° N 04:14:41 18° NE 04:17:48 10° E visible
09 Dec - 05:53:04 10° NW 05:57:20 48° WSW 06:01:52 10° S visible
09 Dec - 18:45:34 10° SE 18:48:25 16° ESE 18:51:09 10° ENE visible
09 Dec - 20:25:53 10° SW 20:30:30 50° WNW 20:34:51 10° NNE visible
10 Dec - 03:30:01 10° NE 03:30:40 10° NE 03:31:20 10° NE visible
10 Dec - 05:09:19 10° NNW 05:13:44 85° ENE 05:18:26 10° SSE visible
10 Dec - 19:42:03 10° SSW 19:46:51 84° ESE 19:51:19 10° NNE visible
10 Dec - 21:28:06 10° WNW 21:29:49 12° NW 21:31:30 10° NNW night (unlit)
11 Dec - 04:25:51 10° NNW 04:30:03 43° ENE 04:34:30 10° SE visible
11 Dec - 06:09:11 10° WNW 06:12:12 18° WSW 06:15:20 10° SSW visible
11 Dec - 18:58:45 10° S 19:03:15 42° ESE 19:07:29 10° NE visible
11 Dec - 20:42:22 10° W 20:45:50 20° NW 20:49:10 10° N visible
12 Dec - 03:42:40 10° N 03:46:16 24° NE 03:49:59 10° ESE visible
12 Dec - 05:24:41 10° NW 05:28:43 34° WSW 05:33:00 10° S visible
12 Dec - 18:16:07 10° SSE 18:19:45 22° ESE 18:23:13 10° ENE visible
12 Dec - 19:57:40 10° WSW 20:02:00 36° NW 20:06:06 10° NNE visible
13 Dec - 03:00:01 10° NNE 03:02:20 14° NE 03:04:41 10° E night (unlit)
13 Dec - 04:40:45 10° NW 04:45:09 69° WSW 04:49:52 10° SSE visible
13 Dec - 17:35:05 10° ESE 17:36:20 11° ESE 17:37:34 10° E visible
13 Dec - 19:13:33 10° SW 19:18:17 69° WNW 19:22:42 10° NNE visible
